Year,Month,Day,Hour,Minute,Value (Times are PST for temperature in C)
2010,05,04,00,00,5.70
2010,05,04,00,01,5.70
2010,05,04,00,02,5.60
2010,05,04,00,03,5.60
2010,05,04,00,04,5.60
2010,05,04,00,05,5.60
2010,05,04,00,06,5.50
2010,05,04,00,07,5.50
2010,05,04,00,08,5.50
2010,05,04,00,09,5.40
2010,05,04,00,10,5.40
2010,05,04,00,11,5.40
2010,05,04,00,12,5.40
2010,05,04,00,13,5.40
2010,05,04,00,14,5.40
2010,05,04,00,15,5.40
2010,05,04,00,16,5.40
2010,05,04,00,17,5.40
2010,05,04,00,18,5.40
2010,05,04,00,19,5.40
2010,05,04,00,20,5.50
2010,05,04,00,21,5.50
2010,05,04,00,22,5.50
2010,05,04,00,23,5.50
2010,05,04,00,24,5.50
2010,05,04,00,25,5.50
2010,05,04,00,26,5.50
2010,05,04,00,27,5.50
2010,05,04,00,28,5.50
2010,05,04,00,29,5.50
2010,05,04,00,30,5.60
2010,05,04,00,31,5.60
2010,05,04,00,32,5.60
2010,05,04,00,33,5.70
2010,05,04,00,34,5.70
2010,05,04,00,35,5.70
2010,05,04,00,36,5.70
2010,05,04,00,37,5.70
2010,05,04,00,38,5.80
2010,05,04,00,39,5.80
2010,05,04,00,40,5.80
2010,05,04,00,41,5.80
2010,05,04,00,42,5.80
2010,05,04,00,43,5.80
2010,05,04,00,44,5.80
2010,05,04,00,45,5.70
2010,05,04,00,46,5.70
2010,05,04,00,47,5.70
2010,05,04,00,48,5.70
2010,05,04,00,49,5.70
2010,05,04,00,50,5.70
2010,05,04,00,51,5.70
2010,05,04,00,52,5.60
2010,05,04,00,53,5.60
2010,05,04,00,54,5.60
2010,05,04,00,55,5.60
2010,05,04,00,56,5.60
2010,05,04,00,57,5.60
2010,05,04,00,58,5.60
2010,05,04,00,59,5.50
2010,05,04,01,00,5.40
2010,05,04,01,01,5.40
2010,05,04,01,02,5.40
2010,05,04,01,03,5.30
2010,05,04,01,04,5.30
2010,05,04,01,05,5.30
2010,05,04,01,06,5.20
2010,05,04,01,07,5.20
2010,05,04,01,08,5.20
2010,05,04,01,09,5.10
2010,05,04,01,10,5.10
2010,05,04,01,11,5.10
2010,05,04,01,12,5.00
2010,05,04,01,13,5.00
2010,05,04,01,14,5.00
2010,05,04,01,15,4.90
2010,05,04,01,16,4.90
2010,05,04,01,17,4.90
2010,05,04,01,18,4.90
2010,05,04,01,19,4.90
2010,05,04,01,20,4.90
2010,05,04,01,21,4.90
2010,05,04,01,22,4.90
2010,05,04,01,23,4.90
2010,05,04,01,24,4.90
2010,05,04,01,25,4.90
2010,05,04,01,26,4.90
2010,05,04,01,27,4.90
2010,05,04,01,28,4.90
2010,05,04,01,29,4.90
2010,05,04,01,30,4.90
2010,05,04,01,31,4.90
2010,05,04,01,32,4.90
2010,05,04,01,33,4.90
2010,05,04,01,34,4.80
2010,05,04,01,35,4.80
2010,05,04,01,36,4.80
2010,05,04,01,37,4.80
2010,05,04,01,38,4.80
2010,05,04,01,39,4.80
2010,05,04,01,40,4.70
2010,05,04,01,41,4.70
2010,05,04,01,42,4.70
2010,05,04,01,43,4.70
2010,05,04,01,44,4.60
2010,05,04,01,45,4.60
2010,05,04,01,46,4.60
2010,05,04,01,47,4.40
2010,05,04,01,48,4.40
2010,05,04,01,49,4.40
2010,05,04,01,50,4.30
2010,05,04,01,51,4.30
2010,05,04,01,52,4.30
2010,05,04,01,53,4.20
2010,05,04,01,54,4.20
2010,05,04,01,55,4.10
2010,05,04,01,56,4.10
2010,05,04,01,57,4.00
2010,05,04,01,58,4.00
2010,05,04,01,59,3.90
2010,05,04,02,00,3.90
2010,05,04,02,01,3.90
2010,05,04,02,02,3.90
2010,05,04,02,03,3.90
2010,05,04,02,04,3.90
2010,05,04,02,05,3.90
2010,05,04,02,06,3.80
2010,05,04,02,07,3.80
2010,05,04,02,08,3.80
2010,05,04,02,09,3.80
2010,05,04,02,10,3.80
2010,05,04,02,11,3.80
2010,05,04,02,12,3.80
2010,05,04,02,13,3.80
2010,05,04,02,14,3.80
2010,05,04,02,15,3.70
2010,05,04,02,16,3.70
2010,05,04,02,17,3.70
2010,05,04,02,18,3.60
2010,05,04,02,19,3.60
2010,05,04,02,20,3.50
2010,05,04,02,21,3.40
2010,05,04,02,22,3.40
2010,05,04,02,23,3.40
2010,05,04,02,24,3.30
2010,05,04,02,25,3.30
2010,05,04,02,26,3.30
2010,05,04,02,27,3.30
2010,05,04,02,28,3.30
2010,05,04,02,29,3.20
2010,05,04,02,30,3.20
2010,05,04,02,31,3.20
2010,05,04,02,32,3.20
2010,05,04,02,33,3.20
2010,05,04,02,34,3.20
2010,05,04,02,35,3.20
2010,05,04,02,36,3.20
2010,05,04,02,37,3.20
2010,05,04,02,38,3.20
2010,05,04,02,39,3.10
2010,05,04,02,40,3.10
2010,05,04,02,41,3.10
2010,05,04,02,42,3.10
2010,05,04,02,43,3.10
2010,05,04,02,44,3.10
2010,05,04,02,45,3.00
2010,05,04,02,46,3.00
2010,05,04,02,47,3.00
2010,05,04,02,48,3.00
2010,05,04,02,49,2.90
2010,05,04,02,50,2.90
2010,05,04,02,51,2.90
2010,05,04,02,52,2.90
2010,05,04,02,53,2.90
2010,05,04,02,54,2.80
2010,05,04,02,55,2.80
2010,05,04,02,56,2.80
2010,05,04,02,57,2.80
2010,05,04,02,58,2.80
2010,05,04,02,59,2.70
2010,05,04,03,00,2.70
2010,05,04,03,01,2.70
2010,05,04,03,02,2.70
2010,05,04,03,03,2.70
2010,05,04,03,04,2.60
2010,05,04,03,05,2.60
2010,05,04,03,06,2.60
2010,05,04,03,07,2.60
2010,05,04,03,08,2.60
2010,05,04,03,09,2.50
2010,05,04,03,10,2.50
2010,05,04,03,11,2.50
2010,05,04,03,12,2.40
2010,05,04,03,13,2.40
2010,05,04,03,14,2.40
2010,05,04,03,15,2.40
2010,05,04,03,16,2.30
2010,05,04,03,17,2.30
2010,05,04,03,18,2.30
2010,05,04,03,19,2.30
2010,05,04,03,20,2.30
2010,05,04,03,21,2.30
2010,05,04,03,22,2.30
2010,05,04,03,23,2.30
2010,05,04,03,24,2.30
2010,05,04,03,25,2.30
2010,05,04,03,26,2.30
2010,05,04,03,27,2.20
2010,05,04,03,28,2.20
2010,05,04,03,29,2.20
2010,05,04,03,30,2.20
2010,05,04,03,31,2.20
2010,05,04,03,32,2.20
2010,05,04,03,33,2.20
2010,05,04,03,34,2.20
2010,05,04,03,35,2.20
2010,05,04,03,36,2.20
2010,05,04,03,37,2.20
2010,05,04,03,38,2.20
2010,05,04,03,39,2.10
2010,05,04,03,40,2.20
2010,05,04,03,41,2.10
2010,05,04,03,42,2.10
2010,05,04,03,43,2.10
2010,05,04,03,44,2.10
2010,05,04,03,45,2.10
2010,05,04,03,46,2.10
2010,05,04,03,47,2.00
2010,05,04,03,48,2.00
2010,05,04,03,49,2.00
2010,05,04,03,50,1.90
2010,05,04,03,51,1.90
2010,05,04,03,52,1.90
2010,05,04,03,53,1.90
2010,05,04,03,54,1.90
2010,05,04,03,55,1.90
2010,05,04,03,56,1.90
2010,05,04,03,57,1.90
2010,05,04,03,58,1.80
2010,05,04,03,59,1.80
2010,05,04,04,00,1.80
2010,05,04,04,01,1.80
2010,05,04,04,02,1.80
2010,05,04,04,03,1.80
2010,05,04,04,04,1.80
2010,05,04,04,05,1.80
2010,05,04,04,06,1.70
2010,05,04,04,07,1.70
2010,05,04,04,08,1.70
2010,05,04,04,09,1.70
2010,05,04,04,10,1.70
2010,05,04,04,11,1.70
2010,05,04,04,12,1.70
2010,05,04,04,13,1.70
2010,05,04,04,14,1.70
2010,05,04,04,15,1.60
2010,05,04,04,16,1.60
2010,05,04,04,17,1.60
2010,05,04,04,18,1.60
2010,05,04,04,19,1.60
2010,05,04,04,20,1.50
2010,05,04,04,21,1.40
2010,05,04,04,22,1.40
2010,05,04,04,23,1.40
2010,05,04,04,24,1.40
2010,05,04,04,25,1.40
2010,05,04,04,26,1.30
2010,05,04,04,27,1.30
2010,05,04,04,28,1.30
2010,05,04,04,29,1.30
2010,05,04,04,30,1.30
2010,05,04,04,31,1.30
2010,05,04,04,32,1.30
2010,05,04,04,33,1.30
2010,05,04,04,34,1.30
2010,05,04,04,35,1.30
2010,05,04,04,36,1.30
2010,05,04,04,37,1.30
2010,05,04,04,38,1.30
2010,05,04,04,39,1.30
2010,05,04,04,40,1.30
2010,05,04,04,41,1.30
2010,05,04,04,42,1.30
2010,05,04,04,43,1.30
2010,05,04,04,44,1.30
2010,05,04,04,45,1.30
2010,05,04,04,46,1.30
2010,05,04,04,47,1.30
2010,05,04,04,48,1.30
2010,05,04,04,49,1.30
2010,05,04,04,50,1.30
2010,05,04,04,51,1.30
2010,05,04,04,52,1.20
2010,05,04,04,53,1.20
2010,05,04,04,54,1.20
2010,05,04,04,55,1.20
2010,05,04,04,56,1.20
2010,05,04,04,57,1.20
2010,05,04,04,58,1.20
2010,05,04,04,59,1.10
2010,05,04,05,00,1.10
2010,05,04,05,01,1.10
2010,05,04,05,02,1.10
2010,05,04,05,03,1.10
2010,05,04,05,04,1.10
2010,05,04,05,05,1.10
2010,05,04,05,06,1.10
2010,05,04,05,07,1.00
2010,05,04,05,08,1.00
2010,05,04,05,09,1.00
2010,05,04,05,10,1.00
2010,05,04,05,11,0.90
2010,05,04,05,12,0.90
2010,05,04,05,13,0.90
2010,05,04,05,14,0.90
2010,05,04,05,15,0.90
2010,05,04,05,16,0.90
2010,05,04,05,17,0.80
2010,05,04,05,18,0.80
2010,05,04,05,19,0.80
2010,05,04,05,20,0.80
2010,05,04,05,21,0.80
2010,05,04,05,22,0.80
2010,05,04,05,23,0.80
2010,05,04,05,24,0.80
2010,05,04,05,25,0.80
2010,05,04,05,26,0.80
2010,05,04,05,27,0.80
2010,05,04,05,28,0.80
2010,05,04,05,29,0.80
2010,05,04,05,30,0.80
2010,05,04,05,31,0.80
2010,05,04,05,32,0.80
2010,05,04,05,33,0.80
2010,05,04,05,34,0.70
2010,05,04,05,35,0.70
2010,05,04,05,36,0.70
2010,05,04,05,37,0.70
2010,05,04,05,38,0.70
2010,05,04,05,39,0.70
2010,05,04,05,40,0.70
2010,05,04,05,41,0.70
2010,05,04,05,42,0.60
2010,05,04,05,43,0.60
2010,05,04,05,44,0.60
2010,05,04,05,45,0.60
2010,05,04,05,46,0.60
2010,05,04,05,47,0.50
2010,05,04,05,48,0.50
2010,05,04,05,49,0.50
2010,05,04,05,50,0.50
2010,05,04,05,51,0.40
2010,05,04,05,52,0.40
2010,05,04,05,53,0.40
2010,05,04,05,54,0.40
2010,05,04,05,55,0.40
2010,05,04,05,56,0.40
2010,05,04,05,57,0.30
2010,05,04,05,58,0.30
2010,05,04,05,59,0.30
2010,05,04,06,00,0.30
2010,05,04,06,01,0.30
2010,05,04,06,02,0.30
2010,05,04,06,03,0.30
2010,05,04,06,04,0.30
2010,05,04,06,05,0.30
2010,05,04,06,06,0.30
2010,05,04,06,07,0.20
2010,05,04,06,08,0.30
2010,05,04,06,09,0.20
2010,05,04,06,10,0.20
2010,05,04,06,11,0.20
2010,05,04,06,12,0.20
2010,05,04,06,13,0.20
2010,05,04,06,14,0.20
2010,05,04,06,15,0.20
2010,05,04,06,16,0.20
2010,05,04,06,17,0.20
2010,05,04,06,18,0.20
2010,05,04,06,19,0.20
2010,05,04,06,20,0.20
2010,05,04,06,21,0.20
2010,05,04,06,22,0.20
2010,05,04,06,23,0.20
2010,05,04,06,24,0.20
2010,05,04,06,25,0.20
2010,05,04,06,26,0.20
2010,05,04,06,27,0.20
2010,05,04,06,28,0.20
2010,05,04,06,29,0.20
2010,05,04,06,30,0.20
2010,05,04,06,31,0.20
2010,05,04,06,32,0.20
2010,05,04,06,33,0.20
2010,05,04,06,34,0.20
2010,05,04,06,35,0.20
2010,05,04,06,36,0.20
2010,05,04,06,37,0.20
2010,05,04,06,38,0.20
2010,05,04,06,39,0.20
2010,05,04,06,40,0.20
2010,05,04,06,41,0.20
2010,05,04,06,42,0.20
2010,05,04,06,43,0.20
2010,05,04,06,44,0.20
2010,05,04,06,45,0.20
2010,05,04,06,46,0.20
2010,05,04,06,47,0.20
2010,05,04,06,48,0.20
2010,05,04,06,49,0.30
2010,05,04,06,50,0.30
2010,05,04,06,51,0.30
2010,05,04,06,52,0.40
2010,05,04,06,53,0.50
2010,05,04,06,54,0.60
2010,05,04,06,55,0.60
2010,05,04,06,56,0.60
2010,05,04,06,57,0.70
2010,05,04,06,58,0.70
2010,05,04,06,59,0.70
2010,05,04,07,00,0.70
2010,05,04,07,01,0.70
2010,05,04,07,02,0.70
2010,05,04,07,03,0.80
2010,05,04,07,04,0.80
2010,05,04,07,05,0.90
2010,05,04,07,06,0.90
2010,05,04,07,07,0.90
2010,05,04,07,08,1.10
2010,05,04,07,09,1.20
2010,05,04,07,10,1.20
2010,05,04,07,11,1.30
2010,05,04,07,12,1.30
2010,05,04,07,13,1.40
2010,05,04,07,14,1.50
2010,05,04,07,15,1.60
2010,05,04,07,16,1.70
2010,05,04,07,17,1.80
2010,05,04,07,18,1.80
2010,05,04,07,19,1.90
2010,05,04,07,20,1.90
2010,05,04,07,21,2.00
2010,05,04,07,22,2.10
2010,05,04,07,23,2.10
2010,05,04,07,24,2.10
2010,05,04,07,25,2.10
2010,05,04,07,26,2.10
2010,05,04,07,27,2.10
2010,05,04,07,28,2.10
2010,05,04,07,29,2.10
2010,05,04,07,30,2.10
2010,05,04,07,31,2.10
2010,05,04,07,32,2.10
2010,05,04,07,33,2.10
2010,05,04,07,34,2.10
2010,05,04,07,35,2.00
2010,05,04,07,36,2.10
2010,05,04,07,37,2.10
2010,05,04,07,38,2.10
2010,05,04,07,39,2.20
2010,05,04,07,40,2.20
2010,05,04,07,41,2.30
2010,05,04,07,42,2.40
2010,05,04,07,43,2.40
2010,05,04,07,44,2.50
2010,05,04,07,45,2.60
2010,05,04,07,46,2.60
2010,05,04,07,47,2.60
2010,05,04,07,48,2.60
2010,05,04,07,49,2.60
2010,05,04,07,50,2.60
2010,05,04,07,51,2.70
2010,05,04,07,52,2.70
2010,05,04,07,53,2.70
2010,05,04,07,54,2.80
2010,05,04,07,55,2.90
2010,05,04,07,56,3.00
2010,05,04,07,57,3.00
2010,05,04,07,58,3.10
2010,05,04,07,59,3.10
2010,05,04,08,00,3.10
2010,05,04,08,01,3.10
2010,05,04,08,02,3.20
2010,05,04,08,03,3.20
2010,05,04,08,04,3.30
2010,05,04,08,05,3.30
2010,05,04,08,06,3.40
2010,05,04,08,07,3.50
2010,05,04,08,08,3.50
2010,05,04,08,09,3.60
2010,05,04,08,10,3.70
2010,05,04,08,11,3.80
2010,05,04,08,12,3.80
2010,05,04,08,13,3.80
2010,05,04,08,14,3.80
2010,05,04,08,15,3.90
2010,05,04,08,16,4.00
2010,05,04,08,17,4.10
2010,05,04,08,18,4.10
2010,05,04,08,19,4.10
2010,05,04,08,20,4.20
2010,05,04,08,21,4.20
2010,05,04,08,22,4.20
2010,05,04,08,23,4.20
2010,05,04,08,24,4.20
2010,05,04,08,25,4.20
2010,05,04,08,26,4.20
2010,05,04,08,27,4.20
2010,05,04,08,28,4.20
2010,05,04,08,29,4.20
2010,05,04,08,30,4.20
2010,05,04,08,31,4.20
2010,05,04,08,32,4.20
2010,05,04,08,33,4.20
2010,05,04,08,34,4.10
2010,05,04,08,35,4.20
2010,05,04,08,36,4.20
2010,05,04,08,37,4.20
2010,05,04,08,38,4.20
2010,05,04,08,39,4.30
2010,05,04,08,40,4.30
2010,05,04,08,41,4.40
2010,05,04,08,42,4.60
2010,05,04,08,43,4.70
2010,05,04,08,44,4.80
2010,05,04,08,45,4.90
2010,05,04,08,46,5.00
2010,05,04,08,47,5.10
2010,05,04,08,48,5.20
2010,05,04,08,49,5.20
2010,05,04,08,50,5.30
2010,05,04,08,51,5.30
2010,05,04,08,52,5.30
2010,05,04,08,53,5.30
2010,05,04,08,54,5.30
2010,05,04,08,55,5.30
2010,05,04,08,56,5.40
2010,05,04,08,57,5.40
2010,05,04,08,58,5.40
2010,05,04,08,59,5.60
2010,05,04,09,00,5.60
2010,05,04,09,01,5.70
2010,05,04,09,02,5.70
2010,05,04,09,03,5.70
2010,05,04,09,04,5.80
2010,05,04,09,05,5.80
2010,05,04,09,06,5.90
2010,05,04,09,07,5.90
2010,05,04,09,08,5.90
2010,05,04,09,09,6.10
2010,05,04,09,10,6.10
2010,05,04,09,11,6.10
2010,05,04,09,12,6.20
2010,05,04,09,13,6.20
2010,05,04,09,14,6.20
2010,05,04,09,15,6.20
2010,05,04,09,16,6.30
2010,05,04,09,17,6.30
2010,05,04,09,18,6.40
2010,05,04,09,19,6.60
2010,05,04,09,20,6.60
2010,05,04,09,21,6.70
2010,05,04,09,22,6.80
2010,05,04,09,23,6.80
2010,05,04,09,24,6.80
2010,05,04,09,25,6.90
2010,05,04,09,26,7.00
2010,05,04,09,27,7.00
2010,05,04,09,28,7.10
2010,05,04,09,29,7.10
2010,05,04,09,30,7.20
2010,05,04,09,31,7.20
2010,05,04,09,32,7.20
2010,05,04,09,33,7.20
2010,05,04,09,34,7.20
2010,05,04,09,35,7.20
2010,05,04,09,36,7.10
2010,05,04,09,37,7.10
2010,05,04,09,38,7.10
2010,05,04,09,39,7.20
2010,05,04,09,40,7.20
2010,05,04,09,41,7.20
2010,05,04,09,42,7.20
2010,05,04,09,43,7.20
2010,05,04,09,44,7.30
2010,05,04,09,45,7.30
2010,05,04,09,46,7.30
2010,05,04,09,47,7.40
2010,05,04,09,48,7.40
2010,05,04,09,49,7.40
2010,05,04,09,50,7.50
2010,05,04,09,51,7.50
2010,05,04,09,52,7.50
2010,05,04,09,53,7.40
2010,05,04,09,54,7.40
2010,05,04,09,55,7.40
2010,05,04,09,56,7.40
2010,05,04,09,57,7.30
2010,05,04,09,58,7.30
2010,05,04,09,59,7.30
2010,05,04,10,00,7.30
2010,05,04,10,01,7.30
2010,05,04,10,02,7.30
2010,05,04,10,03,7.30
2010,05,04,10,04,7.30
2010,05,04,10,05,7.30
2010,05,04,10,06,7.30
2010,05,04,10,07,7.30
2010,05,04,10,08,7.30
2010,05,04,10,09,7.30
2010,05,04,10,10,7.30
2010,05,04,10,11,7.40
2010,05,04,10,12,7.40
2010,05,04,10,13,7.40
2010,05,04,10,14,7.50
2010,05,04,10,15,7.60
2010,05,04,10,16,7.60
2010,05,04,10,17,7.70
2010,05,04,10,18,7.70
2010,05,04,10,19,7.80
2010,05,04,10,20,7.80
2010,05,04,10,21,7.80
2010,05,04,10,22,7.80
2010,05,04,10,23,7.80
2010,05,04,10,24,7.80
2010,05,04,10,25,7.80
2010,05,04,10,26,7.90
2010,05,04,10,27,7.90
2010,05,04,10,28,7.90
2010,05,04,10,29,7.90
2010,05,04,10,30,7.90
2010,05,04,10,31,7.90
2010,05,04,10,32,7.90
2010,05,04,10,33,7.90
2010,05,04,10,34,7.90
2010,05,04,10,35,7.90
2010,05,04,10,36,7.80
2010,05,04,10,37,7.80
2010,05,04,10,38,7.80
2010,05,04,10,39,7.80
2010,05,04,10,40,7.80
2010,05,04,10,41,7.80
2010,05,04,10,42,7.80
2010,05,04,10,43,7.80
2010,05,04,10,44,7.90
2010,05,04,10,45,7.90
2010,05,04,10,46,8.00
2010,05,04,10,47,8.10
2010,05,04,10,48,8.20
2010,05,04,10,49,8.30
2010,05,04,10,50,8.30
2010,05,04,10,51,8.40
2010,05,04,10,52,8.50
2010,05,04,10,53,8.60
2010,05,04,10,54,8.70
2010,05,04,10,55,8.70
2010,05,04,10,56,8.80
2010,05,04,10,57,8.90
2010,05,04,10,58,9.00
2010,05,04,10,59,9.10
2010,05,04,11,00,9.10
2010,05,04,11,01,9.20
2010,05,04,11,02,9.20
2010,05,04,11,03,9.20
2010,05,04,11,04,9.20
2010,05,04,11,05,9.20
2010,05,04,11,06,9.20
2010,05,04,11,07,9.20
2010,05,04,11,08,9.20
2010,05,04,11,09,9.10
2010,05,04,11,10,9.10
2010,05,04,11,11,8.90
2010,05,04,11,12,8.90
2010,05,04,11,13,8.80
2010,05,04,11,14,8.80
2010,05,04,11,15,8.70
2010,05,04,11,16,8.70
2010,05,04,11,17,8.70
2010,05,04,11,18,8.70
2010,05,04,11,19,8.70
2010,05,04,11,20,8.70
2010,05,04,11,21,8.70
2010,05,04,11,22,8.80
2010,05,04,11,23,8.80
2010,05,04,11,24,8.80
2010,05,04,11,25,8.80
2010,05,04,11,26,8.80
2010,05,04,11,27,8.80
2010,05,04,11,28,8.80
2010,05,04,11,29,8.90
2010,05,04,11,30,8.90
2010,05,04,11,31,8.90
2010,05,04,11,32,9.10
2010,05,04,11,33,9.10
2010,05,04,11,34,9.20
2010,05,04,11,35,9.20
2010,05,04,11,36,9.30
2010,05,04,11,37,9.30
2010,05,04,11,38,9.30
2010,05,04,11,39,9.40
2010,05,04,11,40,9.40
2010,05,04,11,41,9.40
2010,05,04,11,42,9.50
2010,05,04,11,43,9.60
2010,05,04,11,44,9.60
2010,05,04,11,45,9.70
2010,05,04,11,46,9.70
2010,05,04,11,47,9.70
2010,05,04,11,48,9.70
2010,05,04,11,49,9.80
2010,05,04,11,50,9.80
2010,05,04,11,51,9.90
2010,05,04,11,52,9.90
2010,05,04,11,53,9.90
2010,05,04,11,54,9.90
2010,05,04,11,55,9.90
2010,05,04,11,56,9.80
2010,05,04,11,57,9.80
2010,05,04,11,58,9.80
2010,05,04,11,59,9.80
2010,05,04,12,00,9.90
2010,05,04,12,01,9.80
2010,05,04,12,02,9.80
2010,05,04,12,03,9.70
2010,05,04,12,04,9.70
2010,05,04,12,05,9.70
2010,05,04,12,06,9.70
2010,05,04,12,07,9.70
2010,05,04,12,08,9.70
2010,05,04,12,09,9.70
2010,05,04,12,10,9.70
2010,05,04,12,11,9.80
2010,05,04,12,12,9.80
2010,05,04,12,13,9.90
2010,05,04,12,14,9.80
2010,05,04,12,15,9.80
2010,05,04,12,16,9.80
2010,05,04,12,17,9.80
2010,05,04,12,18,9.90
2010,05,04,12,19,10.10
2010,05,04,12,20,10.20
2010,05,04,12,21,10.30
2010,05,04,12,22,10.40
2010,05,04,12,23,10.40
2010,05,04,12,24,10.50
2010,05,04,12,25,10.60
2010,05,04,12,26,10.70
2010,05,04,12,27,10.70
2010,05,04,12,28,10.80
2010,05,04,12,29,10.90
2010,05,04,12,30,10.90
2010,05,04,12,31,11.00
2010,05,04,12,32,11.10
2010,05,04,12,33,11.10
2010,05,04,12,34,11.20
2010,05,04,12,35,11.20
2010,05,04,12,36,11.20
2010,05,04,12,37,11.20
2010,05,04,12,38,11.20
2010,05,04,12,39,11.20
2010,05,04,12,40,11.20
2010,05,04,12,41,11.20
2010,05,04,12,42,11.20
2010,05,04,12,43,11.20
2010,05,04,12,44,11.20
2010,05,04,12,45,11.10
2010,05,04,12,46,11.10
2010,05,04,12,47,11.20
2010,05,04,12,48,11.20
2010,05,04,12,49,11.20
2010,05,04,12,50,11.20
2010,05,04,12,51,11.30
2010,05,04,12,52,11.30
2010,05,04,12,53,11.30
2010,05,04,12,54,11.30
2010,05,04,12,55,11.20
2010,05,04,12,56,11.20
2010,05,04,12,57,11.00
2010,05,04,12,58,10.90
2010,05,04,12,59,10.80
2010,05,04,13,00,10.80
2010,05,04,13,01,10.80
2010,05,04,13,02,10.70
2010,05,04,13,03,10.60
2010,05,04,13,04,10.70
2010,05,04,13,05,10.70
2010,05,04,13,06,10.80
2010,05,04,13,07,10.90
2010,05,04,13,08,11.00
2010,05,04,13,09,11.00
2010,05,04,13,10,11.00
2010,05,04,13,11,10.90
2010,05,04,13,12,10.90
2010,05,04,13,13,10.90
2010,05,04,13,14,10.90
2010,05,04,13,15,10.90
2010,05,04,13,16,10.90
2010,05,04,13,17,10.90
2010,05,04,13,18,11.00
2010,05,04,13,19,11.00
2010,05,04,13,20,11.10
2010,05,04,13,21,11.10
2010,05,04,13,22,11.00
2010,05,04,13,23,10.90
2010,05,04,13,24,10.80
2010,05,04,13,25,10.90
2010,05,04,13,26,10.80
2010,05,04,13,27,10.80
2010,05,04,13,28,10.90
2010,05,04,13,29,11.00
2010,05,04,13,30,11.10
2010,05,04,13,31,11.00
2010,05,04,13,32,11.00
2010,05,04,13,33,11.00
2010,05,04,13,34,10.90
2010,05,04,13,35,10.90
2010,05,04,13,36,10.90
2010,05,04,13,37,10.80
2010,05,04,13,38,10.80
2010,05,04,13,39,10.70
2010,05,04,13,40,10.70
2010,05,04,13,41,10.60
2010,05,04,13,42,10.60
2010,05,04,13,43,10.50
2010,05,04,13,44,10.40
2010,05,04,13,45,10.40
2010,05,04,13,46,10.30
2010,05,04,13,47,10.30
2010,05,04,13,48,10.20
2010,05,04,13,49,10.20
2010,05,04,13,50,10.10
2010,05,04,13,51,10.10
2010,05,04,13,52,10.10
2010,05,04,13,53,10.10
2010,05,04,13,54,10.10
2010,05,04,13,55,10.00
2010,05,04,13,56,9.90
2010,05,04,13,57,9.80
2010,05,04,13,58,9.80
2010,05,04,13,59,9.80
2010,05,04,14,00,9.70
2010,05,04,14,01,9.70
2010,05,04,14,02,9.70
2010,05,04,14,03,9.70
2010,05,04,14,04,9.70
2010,05,04,14,05,9.60
2010,05,04,14,06,9.60
2010,05,04,14,07,9.50
2010,05,04,14,08,9.50
2010,05,04,14,09,9.40
2010,05,04,14,10,9.40
2010,05,04,14,11,9.40
2010,05,04,14,12,9.50
2010,05,04,14,13,9.50
2010,05,04,14,14,9.50
2010,05,04,14,15,9.50
2010,05,04,14,16,9.40
2010,05,04,14,17,9.40
2010,05,04,14,18,9.40
2010,05,04,14,19,9.40
2010,05,04,14,20,9.40
2010,05,04,14,21,9.40
2010,05,04,14,22,9.40
2010,05,04,14,23,9.50
2010,05,04,14,24,9.60
2010,05,04,14,25,9.60
2010,05,04,14,26,9.60
2010,05,04,14,27,9.60
2010,05,04,14,33,9.60
2010,05,04,14,34,9.60
2010,05,04,14,35,9.60
2010,05,04,14,36,9.50
2010,05,04,14,37,9.60
2010,05,04,14,38,9.60
2010,05,04,14,39,9.60
2010,05,04,14,40,9.60
2010,05,04,14,41,9.60
2010,05,04,14,42,9.60
2010,05,04,14,43,9.60
2010,05,04,14,44,9.60
2010,05,04,14,45,9.60
2010,05,04,14,46,9.60
2010,05,04,14,47,9.50
2010,05,04,14,48,9.60
2010,05,04,14,49,9.60
2010,05,04,14,50,9.60
2010,05,04,14,51,9.60
2010,05,04,14,52,9.50
2010,05,04,14,53,9.40
2010,05,04,14,54,9.30
2010,05,04,14,55,9.20
2010,05,04,14,56,9.10
2010,05,04,14,57,9.00
2010,05,04,14,58,9.00
2010,05,04,14,59,8.90
2010,05,04,15,00,8.80
2010,05,04,15,01,8.80
2010,05,04,15,02,8.70
2010,05,04,15,03,8.60
2010,05,04,15,04,8.60
2010,05,04,15,05,8.60
2010,05,04,15,06,8.60
2010,05,04,15,07,8.70
2010,05,04,15,08,8.60
2010,05,04,15,09,8.60
2010,05,04,15,10,8.60
2010,05,04,15,11,8.40
2010,05,04,15,12,8.50
2010,05,04,15,13,8.50
2010,05,04,15,14,8.50
2010,05,04,15,15,8.40
2010,05,04,15,16,8.30
2010,05,04,15,17,8.30
2010,05,04,15,18,8.30
2010,05,04,15,19,8.20
2010,05,04,15,20,8.20
2010,05,04,15,21,8.20
2010,05,04,15,22,8.20
2010,05,04,15,23,8.20
2010,05,04,15,24,8.20
2010,05,04,15,25,8.20
2010,05,04,15,26,8.30
2010,05,04,15,27,8.30
2010,05,04,15,28,8.20
2010,05,04,15,29,8.20
2010,05,04,15,30,8.20
2010,05,04,15,31,8.20
2010,05,04,15,32,8.20
2010,05,04,15,33,8.20
2010,05,04,15,34,8.20
2010,05,04,15,35,8.10
2010,05,04,15,36,8.10
2010,05,04,15,37,8.10
2010,05,04,15,38,8.00
2010,05,04,15,39,7.90
2010,05,04,15,40,7.90
2010,05,04,15,41,7.90
2010,05,04,15,42,7.80
2010,05,04,15,43,7.80
2010,05,04,15,44,7.80
2010,05,04,15,45,7.90
2010,05,04,15,46,7.80
2010,05,04,15,47,7.80
2010,05,04,15,48,7.70
2010,05,04,15,49,7.70
2010,05,04,15,50,7.60
2010,05,04,15,51,7.60
2010,05,04,15,52,7.50
2010,05,04,15,53,7.40
2010,05,04,15,54,7.30
2010,05,04,15,55,7.20
2010,05,04,15,56,7.20
2010,05,04,15,57,7.00
2010,05,04,15,58,6.90
2010,05,04,15,59,6.80
2010,05,04,16,00,6.70
2010,05,04,16,01,6.50
2010,05,04,16,02,6.40
2010,05,04,16,03,6.30
2010,05,04,16,04,6.20
2010,05,04,16,05,6.10
2010,05,04,16,06,6.00
2010,05,04,16,07,5.90
2010,05,04,16,08,5.80
2010,05,04,16,09,5.80
2010,05,04,16,10,5.70
2010,05,04,16,11,5.60
2010,05,04,16,12,5.60
2010,05,04,16,13,5.60
2010,05,04,16,14,5.50
2010,05,04,16,15,5.50
2010,05,04,16,16,5.40
2010,05,04,16,17,5.40
2010,05,04,16,18,5.30
2010,05,04,16,19,5.30
2010,05,04,16,20,5.20
2010,05,04,16,21,5.20
2010,05,04,16,22,5.10
2010,05,04,16,23,5.10
2010,05,04,16,24,5.00
2010,05,04,16,25,5.00
2010,05,04,16,26,4.90
2010,05,04,16,27,4.90
2010,05,04,16,28,5.00
2010,05,04,16,29,5.00
2010,05,04,16,30,4.90
2010,05,04,16,31,5.00
2010,05,04,16,32,4.90
2010,05,04,16,33,4.90
2010,05,04,16,34,4.90
2010,05,04,16,35,4.90
2010,05,04,16,36,5.00
2010,05,04,16,37,5.00
2010,05,04,16,38,5.00
2010,05,04,16,39,5.00
2010,05,04,16,40,4.90
2010,05,04,16,41,4.90
2010,05,04,16,42,4.90
2010,05,04,16,43,4.90
2010,05,04,16,44,5.00
2010,05,04,16,45,5.00
2010,05,04,16,46,5.00
2010,05,04,16,47,5.00
2010,05,04,16,48,5.10
2010,05,04,16,49,5.10
2010,05,04,16,50,5.10
2010,05,04,16,51,5.10
2010,05,04,16,52,5.10
2010,05,04,16,53,5.10
2010,05,04,16,54,5.10
2010,05,04,16,55,5.10
2010,05,04,16,56,5.10
2010,05,04,16,57,5.10
2010,05,04,16,58,5.20
2010,05,04,16,59,5.20
2010,05,04,17,00,5.20
2010,05,04,17,01,5.20
2010,05,04,17,02,5.20
2010,05,04,17,03,5.20
2010,05,04,17,04,5.20
2010,05,04,17,05,5.30
2010,05,04,17,06,5.30
2010,05,04,17,07,5.30
2010,05,04,17,08,5.30
2010,05,04,17,09,5.30
2010,05,04,17,10,5.30
2010,05,04,17,11,5.30
2010,05,04,17,12,5.30
2010,05,04,17,13,5.30
2010,05,04,17,14,5.30
2010,05,04,17,15,5.30
2010,05,04,17,16,5.30
2010,05,04,17,17,5.30
2010,05,04,17,18,5.30
2010,05,04,17,19,5.30
2010,05,04,17,20,5.30
2010,05,04,17,21,5.30
2010,05,04,17,22,5.30
2010,05,04,17,23,5.30
2010,05,04,17,24,5.30
2010,05,04,17,25,5.40
2010,05,04,17,26,5.40
2010,05,04,17,27,5.40
2010,05,04,17,28,5.40
2010,05,04,17,29,5.40
2010,05,04,17,30,5.40
2010,05,04,17,31,5.30
2010,05,04,17,32,5.30
2010,05,04,17,33,5.30
2010,05,04,17,34,5.30
2010,05,04,17,35,5.30
2010,05,04,17,36,5.30
2010,05,04,17,37,5.40
2010,05,04,17,38,5.30
2010,05,04,17,39,5.40
2010,05,04,17,40,5.40
2010,05,04,17,41,5.40
2010,05,04,17,42,5.40
2010,05,04,17,43,5.40
2010,05,04,17,44,5.40
2010,05,04,17,45,5.40
2010,05,04,17,46,5.40
2010,05,04,17,47,5.40
2010,05,04,17,48,5.40
2010,05,04,17,49,5.40
2010,05,04,17,50,5.40
2010,05,04,17,51,5.40
2010,05,04,17,52,5.40
2010,05,04,17,53,5.40
2010,05,04,17,54,5.40
2010,05,04,17,55,5.40
2010,05,04,17,56,5.40
2010,05,04,17,57,5.50
2010,05,04,17,58,5.50
2010,05,04,17,59,5.50
2010,05,04,18,00,5.50
2010,05,04,18,01,5.50
2010,05,04,18,02,5.50
2010,05,04,18,03,5.50
2010,05,04,18,04,5.50
2010,05,04,18,05,5.50
2010,05,04,18,06,5.50
2010,05,04,18,07,5.50